Location: ???????
(56.2167°N, 38.0500°E)
Time: 03:35:45
(UTC+00:00)

SL-24 R/B - Pass Details

Date: 19 May 2025
Orbit: 623 x 1072 km, 98.1° (Epoch: 14 June)

Event Time Altitude Azimuth Distance (km) Brightness Sun altitude
Rises 19:19:36 0° 16° (NNE) 2,931 8.2 -9.4°
Reaches altitude 10° 19:21:48 10° 19° (NNE) 2,011 7.3 -9.6°
Maximum altitude 19:26:06 69° 103° (ESE) 679 4.1 -9.8°
Drops below altitude 10° 19:30:30 10° 188° (S) 2,058 6.2 -10.1°
Enters shadow 19:30:54 - 189° (S) 2,221 6.4 -10.2°
